Observations
| Time | Sensor | AQI | SAQ | Temp °C | Hum % | Pres Pa | CO μg/m³ | H₂S μg/m³ | NO μg/m³ | NO₂ μg/m³ | O₃ μg/m³ | SO₂ μg/m³ | CO₂e PPM | VOC PPM | PM1 μg/m³ | PM2.5 μg/m³ | PM4 μg/m³ | PM10 μg/m³ | TPS µm |
|---|---|---|---|---|---|---|---|---|---|---|---|---|---|---|---|---|---|---|---|
| Tuesday 11 August 2026 | |||||||||||||||||||
| 02:58 | Trim Patrick St | 1 | 11.9 | 77 | 38,460 | 0.32 | 4.65 | 4.05 | 30.72 | 9.84 | 0 | 3.71 | 8.23 | 9.05 | |||||
| 02:58 | Trim Market St | 2 | 13.5 | 69 | 56,075 | 0.31 | 0 | 3.27 | 15.83 | 38.1 | 0 | 1.43 | 4.06 | 8.16 | |||||
| 02:57 | Trim Patrick St | 1 | 11.9 | 77 | 38,460 | 0.33 | 4.11 | 4.05 | 27.22 | 11.65 | 0 | 4.57 | 8.23 | 9.06 | |||||
| 02:57 | Trim Market St | 2 | 13.5 | 69 | 56,117 | 0.33 | 0 | 3.17 | 17.05 | 39.02 | 0 | 2.14 | 4.06 | 6.27 | |||||
| 02:56 | Trim Patrick St | 1 | 11.9 | 77 | 38,460 | 0.32 | 4.47 | 4.03 | 26.78 | 12.23 | 0 | 2.86 | 6.12 | 6.73 | |||||
| 02:56 | Trim Market St | 2 | 13.5 | 69 | 56,141 | 0.32 | 0 | 3.29 | 14.76 | 38.31 | 0 | 2.14 | 4.07 | 6.27 | |||||
| 02:55 | Trim Patrick St | 1 | 11.9 | 77 | 38,460 | 0.32 | 4.42 | 4.03 | 31.17 | 8.04 | 0 | 3.71 | 7.53 | 8.28 | |||||
| 02:55 | Trim Market St | 2 | 13.5 | 69 | 56,169 | 0.32 | 0 | 2.85 | 15.79 | 35.12 | 0 | 1.43 | 4.07 | 6.27 | |||||
| 02:54 | Trim Patrick St | 1 | 11.9 | 77 | 38,460 | 0.32 | 4.27 | 4.03 | 29.8 | 9.36 | 0 | 4.57 | 7.54 | 8.29 | |||||
| 02:54 | Trim Market St | 2 | 13.5 | 69 | 56,200 | 0.32 | 0 | 2.7 | 12.47 | 43.87 | 0 | 1.43 | 3.1 | 5 | |||||
| 02:53 | Trim Patrick St | 1 | 11.9 | 77 | 38,460 | 0.33 | 5.66 | 4.02 | 30.71 | 10.54 | 0 | 3.71 | 8.24 | 9.07 | |||||
| 02:52 | Trim Patrick St | 1 | 11.9 | 77 | 38,460 | 0.32 | 4.83 | 4.02 | 32.96 | 7.82 | 0 | 3.71 | 7.54 | 8.3 | |||||
| 02:52 | Trim Market St | 2 | 13.6 | 69 | 56,228 | 0.3 | 0 | 3.33 | 16.92 | 39.17 | 0 | 2.85 | 3.59 | 7.53 | |||||
| 02:51 | Trim Patrick St | 1 | 12 | 77 | 38,460 | 0.31 | 4.35 | 3.98 | 30.62 | 11.05 | 0 | 3.71 | 6.84 | 7.52 | |||||
| 02:50 | Trim Patrick St | 1 | 12 | 77 | 38,460 | 0.32 | 4.37 | 3.95 | 28.38 | 9.92 | 0 | 3.71 | 6.84 | 7.52 | |||||
| 02:50 | Trim Market St | 2 | 13.6 | 69 | 56,301 | 0.32 | 0 | 3.5 | 15.38 | 37.45 | 0 | 2.14 | 3.11 | 5 | |||||
| 02:49 | Trim Patrick St | 1 | 12 | 77 | 38,460 | 0.32 | 4.53 | 3.94 | 28.81 | 11.72 | 0 | 3.71 | 7.55 | 8.3 | |||||
| 02:48 | Trim Patrick St | 1 | 12 | 77 | 38,460 | 0.31 | 4.68 | 3.99 | 30.61 | 9.15 | 0 | 2.86 | 6.84 | 7.53 | |||||
| 02:47 | Trim Patrick St | 1 | 12 | 77 | 38,460 | 0.31 | 4.32 | 3.98 | 28.8 | 10.25 | 0 | 2.86 | 6.85 | 7.54 | |||||
| 02:46 | Trim Patrick St | 1 | 12 | 77 | 38,460 | 0.32 | 4.76 | 4.01 | 28.35 | 9.57 | 0 | 2.86 | 6.14 | 6.76 | |||||